Location: Bluff Heights
(33.7692°N, 118.1592°W)
Time: 10:04:09
(UTC+00:00)

Vanguard 3 - Visible Passes

Search period start: 03 August 2021 00:00
Search period end: 13 August 2021 00:00
Orbit: 508 x 3261 km, 33.4° (Epoch: 02 August)

Date Brightness Start Highest point End Pass type
(mag) Time Alt. Az. Time Alt. Az. Time Alt. Az.
03 Aug 10.1 03:18:30 10° W 03:35:13 89° S 03:55:24 10° E visible
03 Aug 9.9 05:33:37 10° WNW 05:52:57 73° SSW 06:00:57 45° SE visible
03 Aug 10.3 07:51:01 10° W 08:05:25 38° WSW 08:05:25 38° WSW visible
04 Aug 10.0 04:17:22 10° W 04:35:20 83° SSW 04:50:05 24° ESE visible
04 Aug 9.9 06:33:13 10° WNW 06:52:09 55° SSW 06:54:34 53° SSW visible
04 Aug 11.0 08:53:23 10° W 08:59:02 17° WSW 08:59:02 17° WSW visible
05 Aug 10.1 03:01:49 10° W 03:17:38 88° S 03:38:00 10° E visible
05 Aug 10.0 05:16:27 10° WNW 05:35:08 70° SSW 05:43:45 42° SE visible
05 Aug 10.4 07:33:41 10° W 07:48:14 35° SW 07:48:14 35° SW visible
06 Aug 10.0 04:00:31 10° W 04:17:38 81° SSW 04:32:59 22° ESE visible
06 Aug 10.0 06:15:58 10° WNW 06:34:17 51° SW 06:37:28 48° S visible
06 Aug 11.1 08:36:38 10° W 08:41:57 16° WSW 08:41:57 16° WSW visible
07 Aug 10.0 02:45:13 10° W 03:00:07 87° S 03:20:29 10° E visible
07 Aug 10.1 04:59:26 10° WNW 05:17:18 66° SSW 05:26:46 39° SE visible
07 Aug 10.5 07:16:34 10° W 07:31:15 33° SW 07:31:15 33° SW visible
08 Aug 10.0 03:43:45 10° W 03:59:57 78° SSW 04:16:07 20° ESE visible
08 Aug 10.2 05:58:53 10° W 06:16:23 47° SW 06:20:36 43° S visible
08 Aug 11.2 08:20:18 10° W 08:25:06 15° WSW 08:25:06 15° WSW visible
09 Aug 10.1 04:42:32 10° WNW 04:59:29 61° SSW 05:10:00 34° SE visible
09 Aug 10.7 06:59:40 10° W 07:14:30 29° SW 07:14:30 29° SW visible
10 Aug 10.0 03:27:05 10° W 03:42:19 74° SSW 03:59:29 17° ESE visible
10 Aug 10.3 05:41:58 10° W 05:58:31 43° SW 06:03:59 37° S visible
10 Aug 11.2 08:04:38 10° WSW 08:08:29 13° WSW 08:08:29 13° WSW visible
11 Aug 10.2 04:25:46 10° W 04:41:43 57° SSW 04:53:31 29° SSE visible
11 Aug 10.8 06:43:02 10° W 06:57:04 26° SW 06:58:01 26° SW visible
12 Aug 10.0 03:10:31 10° W 03:24:45 69° SSW 03:43:07 13° SE visible
12 Aug 10.5 05:25:15 10° W 05:40:43 38° SW 05:47:38 31° S visible
12 Aug 11.3 07:50:25 10° WSW 07:52:08 11° WSW 07:52:08 11° WSW visible
